Home > Weather > St Helens > Past weeks

Flag for United Kingdom Past Weather in St Helens, England, United Kingdom — Yesterday and Last 2 Weeks

Now
57 °F

Passing clouds.


Feels Like: 53 °F
Forecast: 54 / 62 °F
Wind: 17 mph from Northwest

Location: Liverpool Airport

Current Time: Jun 26, 2016 at 12:21:34 AM

Latest Report: Jun 25, 2016 at 11:50 PM


Visibility: N/A

Pressure: 30.07 "Hg

Humidity: 88%

Dew Point: 54 °F

Location of St HelensLocation

Past Weather in St Helens — Graph

°F

St Helens Temperature Yesterday

Maximum temperature yesterday: 63 °F (at 12:50 PM)
Minimum temperature yesterday: 55 °F (at 12:20 AM)
Average temperature yesterday: 58 °F

High & Low Weather Summary for the Past Weeks

 TemperatureHumidityPressure
High70 °F (Jun 22, 6:20 PM)100% (Jun 10, 11:50 PM)30.21 "Hg (Jun 10, 11:50 PM)
Low54 °F (Jun 17, 3:50 AM)53% (Jun 23, 12:50 PM)29.33 "Hg (Jun 14, 3:20 PM)
Average60 °F83%29.82 "Hg
* Reported Jun 10 11:20 PM — Jun 25 11:20 PM, St Helens, Weather by CustomWeather, © 2016

Note: Actual official high and low records may vary slightly from our data, if they occured in-between our weather recording intervals... More about our weather records

Advertising

St Helens Weather History for the Previous 24 Hours

Scroll right to see more
 ConditionsComfort  
Time TempWeatherWind HumidityBarometerVisibility
11:20 PM
Sat, Jun 25
57 °FPassing clouds.14 mph88%30.07 "HgN/A
10:50 PM57 °FPartly cloudy.15 mph82%30.07 "HgN/A
10:20 PM59 °FPartly sunny.16 mph82%30.07 "HgN/A
9:50 PM57 °FPartly sunny.15 mph82%30.07 "HgN/A
9:20 PM59 °FPartly sunny.17 mph82%30.04 "HgN/A
8:50 PM59 °FBroken clouds.17 mph82%30.04 "HgN/A
8:20 PM59 °FBroken clouds.15 mph82%30.04 "HgN/A
7:50 PM59 °FBroken clouds.15 mph82%30.04 "HgN/A
7:20 PM57 °FBroken clouds.14 mph88%30.04 "HgN/A
6:50 PM59 °FBroken clouds.16 mph82%30.04 "HgN/A
6:20 PM59 °FBroken clouds.16 mph82%30.04 "HgN/A
5:50 PM59 °FPartly sunny.14 mph82%30.04 "HgN/A
5:20 PM59 °FMostly cloudy.18 mph82%30.04 "HgN/A
4:50 PM61 °FBroken clouds.18 mph77%30.04 "HgN/A
4:20 PM61 °FBroken clouds.17 mph77%30.04 "HgN/A
3:50 PM61 °FPartly sunny.18 mph77%30.04 "HgN/A
3:20 PM63 °FPartly sunny.16 mph68%30.04 "HgN/A
2:50 PM63 °FScattered clouds.14 mph68%30.04 "HgN/A
2:20 PM63 °FScattered clouds.18 mph73%30.04 "HgN/A
1:50 PM61 °FScattered clouds.18 mph72%30.04 "HgN/A
1:20 PM63 °FScattered clouds.20 mph73%30.04 "HgN/A
12:50 PM63 °FScattered clouds.15 mph73%30.04 "HgN/A
12:20 PM61 °FScattered clouds.15 mph72%30.04 "HgN/A
11:50 AM61 °FScattered clouds.12 mph72%30.04 "HgN/A
11:20 AM59 °FScattered clouds.14 mph77%30.04 "HgN/A
10:50 AM59 °FScattered clouds.16 mph82%30.04 "HgN/A
10:20 AM61 °FScattered showers. Scattered clouds.13 mph77%30.04 "HgN/A
9:50 AM61 °FScattered clouds.13 mph77%30.04 "HgN/A
9:20 AM59 °FScattered clouds.13 mph82%30.04 "HgN/A
8:50 AM57 °FScattered clouds.12 mph88%30.04 "HgN/A
8:20 AM57 °FScattered clouds.6 mph88%30.04 "HgN/A
7:20 AM55 °FScattered showers. Scattered clouds.6 mph94%30.01 "HgN/A
6:50 AM55 °FScattered showers. Scattered clouds.6 mph94%30.01 "HgN/A
6:20 AM55 °FScattered showers. Partly sunny.6 mph94%30.01 "HgN/A
5:50 AM55 °FSprinkles. Broken clouds.9 mph88%30.01 "HgN/A
5:20 AM55 °FSprinkles. Partly cloudy.3 mph94%30.01 "HgN/A
4:50 AM55 °FPassing clouds.2 mph88%29.98 "HgN/A
4:20 AM55 °FPassing clouds.3 mph94%29.98 "HgN/A
3:50 AM55 °FCool.2 mph88%29.98 "HgN/A
3:20 AM55 °FPassing clouds.2 mph88%30.01 "HgN/A
2:50 AM55 °FPassing clouds.2 mph88%30.01 "HgN/A
2:20 AM55 °FCool.2 mph88%30.01 "HgN/A
1:50 AM55 °FClear.No wind88%30.01 "Hg10 mi
1:20 AM55 °FClear.2 mph82%30.01 "Hg10 mi
12:50 AM55 °FClear.6 mph82%30.01 "Hg10 mi
12:20 AM55 °FClear.3 mph82%30.01 "Hg10 mi
Weather by CustomWeather, © 2016

See weather overviewHow to use our weather pages